Showing default

COSMOS 2385, 27056

Orbit data source: Space-Track

COSMOS 2385, 27056 is a payload satellite owned by KVR (CIS) in LEO that was launched on Fri, 28 Dec 2001 UTC via a TSIKLON-3 launch vehicle from the Plesetsk Missile And Space Complex (PKMTR). Payload-class satellites include a variety of spacecraft equipped with specific instruments for various scientific and technological missions. These include communications satellites like Starlink; space stations such as the ISS; scientific satellites like the Hubble; Earth observation satellites from companies like Planet Labs, Umbra, and HawkEye 360; GPS; miniature CubeSats for education and research; and military/defense satellites.

Loading next visibility...
Identifier
27056, 2001-058B
Orbit
LEO
Country
Flag of CISCIS
Related business
Manufacturer
NPO PM
Mission
Operational Defense Communications
Bus & Motor
STRELA-3, Unknown motor
Mass
225 kg wet, 225 kg dry
Launch date (UTC)
2001-12-28 (24 years ago)
Launch vehicle
TSIKLON-3
Launch site
Plesetsk Missile And Space Complex (PKMTR)
Object type
Payload
Rocket body
Debris
Shape & HBR
Cyl + 1 Arm, 3.5 m
Radar Cross Section
1.257 m², Medium (>0.1 m² and < 1m²)

Expand to show TLE details & history
Last TLE update: 5 hours ago

TLE from 5 hours ago
0 COSMOS 2385
1 27056U 01058B   26035.90814487  .00000026  00000-0  85980-4 0  9993
2 27056  82.5404 304.4606 0006033 163.6482 270.3951 12.60562129109113
Epoch: 2026-02-04T21:47Z
TLE epoch observation values (Epoch: 2026-02-04T21:47:43.716Z)
Latitude
72.42863°
Longitude
-133.24427°
Altitude
1,433.057 km
Speed
7.151 km/s
True Right ascension
21h 55m 01s
True Declination
72° 20' 17"
Sunlit
Object was in daylight at epoch
Visualization orbit readout
Latitude
Unknown
Longitude
Unknown
Altitude
Unknown
Speed
Unknown
Apparent Right ascension
Unknown
Apparent Declination
Unknown
Sunlit
N/A
Visualization observer readout
Local Sidereal Time
04:35:36
Azimuth
Unknown
Elevation
Unknown
Doppler factor
Unknown
Orbital elements
Apogee altitude
1,422.653 km
Perigee altitude
1,413.246 km
Semi-major axis
7,796.087 km
Eccentricity
0.0006
Inclination
82.5404°
RAAN
304.4606°
Arg. of periapsis
163.6482°
True anomaly
270.32597°
Mean anomaly
270.3951°
Eccentric anomaly
270.36053°
Mean motion
3.15303 °/min
Orbital period
114.18 mins
BSTAR
0.00008598
Loading maneuver chart data...
Computing Atmospheric mass density...
Loading historical data...
Loading historical data...
Loading historical data...
Loading historical data...
Loading historical data...
Loading historical data...
Loading historical data...

Documentation

Showing up to 5 results
|